SCP
-0 -0 -0 -0 0 0 0 0 0 0 0 0 0 0 0 0 0 0 0 0 0 -0 0 0 0 0 0 0 0 -0 0 -0 -0 -0 -0 -0 -0 -0 -0 -0 -0 -0 -0 -0 -0 -0 -0 -0 -0
-0 -0 -0 -0 0 0 0 0 0 0 0 0 0 0 0 0 0 0 0 0 -0 0 0 0 0 0 -0 -0 -0 -0 -0 -0 -0 -0 -0 -0 -0 -0 -0 -0 -0 -0 -0 -0 -0 -0 -0 -0 0
-0 -0 0 0 0 0 0 -0 -0 0 0 0 0 0 0 0 0 -0 0 0 0 0 0 0 0 -0 -0 -0 -0 -0 -0 -0 -0 -0 -0 -0 -0 -0 -0 -0 0 -0 0 0 0 -0 0 0 0
0 0 0 0 0 0 0 0 0 -0 0 0 0 0 0 0 0 0 0 0 0 0 0 -0 -0 -0 -0 -0 -0 -0 0 -0 -0 -0 -0 -0 -0 -0 -0 -0 0 0 0 0 -0 -0 0 0 0
0 0 0 0 0 0 0 0 0 0 -0 0 0 0 0 0 0 0 0 0 0 0 0 -0 -0 -0 -0 -0 -0 -0 -0 -0 -0 -0 -0 -0 -0 -0 -0 -0 -0 -0 -0 0 -0 0 0 0 0
0 0 0 0 0 0 0 0 -0 -0 -0 0 0 0 0 0 0 0 0 0 0 0 0 0 0 0 -0 -0 -0 -0 -0 -0 -0 -0 -0 -0 -0 -0 -0 -0 0 0 0 -0 -0 0 0 0 0
0 0 0 0 0 0 0 0 0 0 0 -0 0 0 0 0 0 0 0 0 0 0 0 0 0 -0 0 -0 -0 -0 -0 -0 0 0 -0 -0 -0 -0 -0 -0 0 0 0 0 0 0 0 0 0
0 0 0 0 0 0 0 0 0 0 0 0 -0 0 0 0 0 0 0 0 0 0 0 0 0 -0 0 -0 0 0 0 0 0 0 -0 -0 -0 -0 -0 0 0 0 0 0 0 0 0 0 0
0 0 0 0 0 0 0 0 0 0 0 0 0 0 0 -0 -0 0 0 0 0 0 0 0 0 0 0 0 0 0 0 0 0 0 0 0 0 -0 -0 0 0 0 0 0 0 0 0 0 0
0 0 0 0 0 0 0 0 0 0 0 0 0 0 0 0 -0 -0 0 0 0 0 0 0 0 0 0 0 0 0 0 0 0 0 0 0 0 0 0 0 0 0 0 0 0 0 0 0 0
0 0 0 0 0 0 0 0 0 0 0 0 -0 0 0 0 0 0 0 0 -0 -0 0 0 0 0 0 0 0 0 0 0 0 0 0 0 0 0 0 0 0 0 0 0 0 0 0 0 0
0 0 0 0 0 0 0 0 0 0 0 0 0 0 0 0 0 0 0 0 0 0 0 0 0 0 0 0 0 0 0 0 0 0 0 0 0 0 0 0 0 0 0 0 0 0 0 0 0
0 0 0 0 0 0 0 0 0 0 0 0 0 0 0 0 0 -0 -0 -0 0 0 0 0 0 0 0 0 0 0 0 0 0 0 0 0 0 0 0 0 0 0 0 0 0 0 0 0 0
0 0 0 0 0 0 0 0 0 0 0 0 0 0 0 0 0 0 -0 0 0 0 0 0 0 0 0 0 0 0 0 0 0 0 0 0 0 0 0 0 0 0 0 0 0 0 0 0 0
0 0 0 0 0 0 0 0 0 0 0 0 0 0 0 0 0 0 0 0 0 0 0 0 0 0 0 0 0 0 0 0 0 0 0 0 0 0 0 0 0 0 0 0 0 0 0 0 0
0 0 0 0 0 0 0 0 0 0 0 0 0 0 0 0 0 0 0 0 0 0 0 0 0 0 0 0 0 0 0 0 0 0 0 0 0 0 0 0 0 0 0 0 0 0 0 0 0
0 0 0 0 0 0 0 0 0 0 0 0 0 0 0 0 0 0 0 0 0 0 0 0 0 0 0 0 0 0 0 0 0 0 0 0 0 0 0 0 0 0 0 0 0 0 0 0 0
0 0 0 0 0 0 0 0 0 0 0 0 0 0 0 0 0 0 0 0 0 0 0 0 0 0 0 0 0 0 0 0 0 0 0 0 0 0 0 0 0 0 0 0 0 0 0 0 0
0 0 0 0 0 0 0 0 0 0 0 0 0 0 0 0 0 0 0 0 0 0 0 0 0 0 0 0 0 0 0 0 0 0 0 0 0 0 0 0 0 0 0 0 0 0 0 0 0
0 0 0 0 0 0 0 0 0 0 0 0 0 0 0 0 0 0 0 0 0 0 0 0 0 0 0 0 0 0 0 0 0 0 0 0 0 0 0 0 0 0 0 0 0 0 0 0 0
0 0 0 0 0 0 0 0 0 0 0 0 0 0 0 0 0 0 0 0 0 0 0 0 0 0 0 0 0 0 0 0 0 0 0 0 0 0 0 0 0 0 0 0 0 0 0 0 0
0 0 0 0 0 0 0 0 0 0 0 0 0 0 0 0 0 0 0 0 0 0 0 0 0 0 0 0 0 0 0 0 0 0 0 0 0 0 0 0 0 0 0 0 0 0 0 0 0
0 0 0 0 0 0 0 0 0 0 0 0 0 0 0 0 0 0 0 0 0 0 0 0 0 0 0 0 0 0 0 0 0 0 0 0 0 0 0 0 0 0 0 0 0 0 0 0 0
0 0 0 0 0 0 0 0 0 0 -0 0 0 0 0 0 0 0 0 0 0 0 0 0 0 0 0 0 0 0 0 0 0 0 0 0 0 0 0 0 0 0 0 0 0 0 0 0 0
0 0 0 0 0 0 0 0 0 0 -0 0 0 0 0 0 0 0 0 0 0 0 0 0 0 0 0 0 0 0 0 0 0 0 0 0 0 0 0 0 0 0 0 0 0 0 0 0 0
0 0 0 0 0 0 0 0 0 0 -0 0 0 0 0 0 0 0 0 0 0 0 0 0 0 0 0 0 0 0 0 0 0 0 0 0 0 0 0 0 0 0 0 0 0 0 0 0 0
0 0 0 0 0 0 0 0 0 0 0 0 0 -0 -0 -0 -0 0 0 0 0 0 0 0 0 0 0 0 0 0 0 0 0 0 0 0 0 0 0 0 0 0 0 0 0 0 0 0 0
0 0 0 0 0 0 0 -0 0 0 0 0 0 0 0 0 0 0 0 0 0 0 0 0 0 0 0 0 0 0 0 0 0 0 0 0 0 0 0 0 0 0 0 0 0 0 0 0 0
0 0 0 0 0 0 0 0 0 -0 -0 -0 0 0 0 0 0 -0 0 0 0 0 0 0 0 0 0 0 0 0 0 0 0 0 0 0 0 0 0 0 0 0 0 0 0 0 0 0 0
0 0 0 0 0 0 0 0 0 0 0 0 0 0 0 -0 -0 -0 0 0 0 0 0 0 0 0 0 0 0 0 0 0 0 0 0 0 0 0 0 0 0 0 0 0 0 0 0 0 0
Wind_Speed_500mb
26 24 6 5 7 5 5 8 1 11 11 5 16 7 2 5 5 6 20 34 41 39 36 35 27 21 19 18 23 25 30 27 18 16 16 15 16 22 23 21 11 23 25 24 23 25 25 26 26
23 18 2 2 6 6 7 9 13 13 8 16 12 9 6 4 4 6 34 36 42 39 37 37 30 21 18 17 18 22 25 27 22 14 14 15 15 16 22 24 14 19 22 24 25 24 21 21 21
19 9 4 3 3 2 5 11 13 12 21 10 8 2 2 5 6 25 29 44 42 39 37 38 31 23 18 16 16 18 19 23 20 15 9 13 13 14 17 22 20 15 17 20 22 22 19 18 17
12 3 4 8 4 2 4 15 15 22 11 5 4 6 4 8 12 23 37 47 42 40 37 36 31 24 20 17 17 16 14 20 20 14 13 7 10 11 12 18 16 18 14 16 19 19 17 16 15
8 3 4 4 4 1 2 12 24 22 13 10 10 6 5 8 19 29 37 44 41 40 39 35 30 26 21 18 17 16 15 16 18 21 17 8 8 11 10 11 11 10 10 11 14 14 14 12 11
5 3 7 11 7 3 4 16 20 18 12 11 9 9 8 14 28 29 38 40 40 38 40 36 31 26 21 18 17 16 15 17 17 19 24 19 10 6 8 11 11 8 6 5 9 10 9 8 8
7 5 6 9 12 9 9 21 21 20 14 13 5 10 9 20 34 28 37 36 39 38 37 35 30 26 22 19 17 17 16 16 17 18 20 20 15 11 7 11 12 10 9 8 6 8 5 3 3
4 5 9 10 17 10 18 22 12 20 14 10 11 7 9 28 34 33 38 35 39 40 38 37 33 28 25 22 20 19 16 16 17 18 17 12 18 18 15 10 11 11 11 11 10 9 10 7 5
3 9 15 15 18 13 23 20 13 12 11 12 16 6 12 34 37 41 44 41 41 42 41 38 35 30 27 25 23 21 19 17 19 19 19 16 15 14 14 13 12 14 13 14 14 15 16 14 12
7 9 12 3 8 14 30 29 27 16 17 15 15 20 17 34 41 46 50 48 46 47 46 43 40 36 31 29 27 25 23 22 20 20 21 22 21 20 18 16 10 9 13 16 18 19 20 19 20
4 7 4 2 2 5 23 19 21 19 18 25 30 28 26 35 44 45 46 45 45 45 46 45 43 40 37 34 33 32 29 26 24 22 21 21 24 24 22 21 21 17 14 12 17 21 23 25 25
8 6 2 4 3 3 13 14 13 28 7 18 14 25 27 35 42 41 42 43 44 44 43 44 44 43 41 39 38 36 35 32 29 26 24 23 23 24 24 24 24 24 23 21 22 24 27 30 31
9 2 3 3 2 1 3 9 10 23 16 12 28 25 28 31 36 37 34 35 38 41 40 40 42 42 42 43 42 41 40 36 33 32 31 29 28 27 27 26 26 26 27 26 27 28 29 31 34
6 5 6 4 6 3 5 5 4 14 19 20 20 26 28 33 35 35 39 39 38 36 39 39 41 40 41 42 42 43 43 41 40 39 37 35 34 33 32 31 30 29 28 28 29 30 32 34 37
5 4 3 10 5 6 7 18 21 10 18 21 21 19 27 32 37 40 35 35 34 34 35 36 37 39 41 42 43 44 42 42 43 41 40 39 39 37 35 35 34 32 32 32 32 32 34 37 40
5 3 11 5 6 2 11 28 12 18 21 23 29 26 23 29 37 40 40 39 38 38 39 36 39 40 43 45 44 44 44 42 40 41 40 41 39 37 37 37 35 34 34 35 37 36 39 40 42
5 13 16 6 3 3 15 11 6 5 12 36 36 31 30 35 41 45 45 45 45 43 42 43 44 45 46 46 47 47 48 47 43 42 43 39 40 40 39 38 36 36 38 38 38 40 42 44 47
16 13 10 13 6 7 14 30 17 9 10 17 26 32 36 44 61 51 50 49 50 50 51 52 53 53 52 51 52 53 54 53 49 49 48 45 42 40 42 42 40 38 40 41 41 41 42 47 48
9 10 9 5 6 5 21 29 27 28 30 38 45 44 42 45 51 52 58 60 61 63 65 65 64 66 60 61 62 58 57 54 52 51 51 51 46 42 43 45 44 41 41 40 42 42 45 46 49
12 12 12 5 1 3 16 27 32 36 37 44 49 53 58 58 56 56 62 59 57 59 61 59 58 54 60 63 64 63 59 58 53 53 50 48 45 43 43 43 44 42 41 42 43 44 45 48 46
17 22 14 6 1 4 15 27 17 8 19 28 39 54 55 54 51 47 52 60 64 68 68 66 61 54 51 50 52 60 66 67 64 59 54 48 44 41 41 42 42 41 40 40 42 43 44 44 47
14 19 18 11 4 9 6 13 8 13 21 25 42 32 41 37 45 50 52 58 60 63 66 64 65 64 59 55 56 56 55 64 69 66 61 49 40 40 40 40 41 42 45 43 44 46 46 46 46
2 8 11 8 10 4 10 11 7 7 16 30 13 6 5 7 21 29 34 38 41 51 46 55 69 70 67 71 66 59 54 50 51 57 51 49 47 44 44 45 44 47 47 49 49 48 45 44 45
17 13 10 5 4 9 18 16 21 14 16 3 3 14 18 19 22 25 27 24 26 30 37 36 41 53 62 64 65 59 53 45 43 45 47 48 47 46 46 45 45 44 44 44 43 42 41 42 44
8 15 4 6 8 10 3 13 23 26 26 17 15 25 26 30 26 24 20 14 21 29 31 28 26 28 35 42 44 45 43 42 39 40 39 39 38 36 33 33 34 37 38 39 41 43 45 45 46
29 15 7 11 9 6 4 13 7 16 27 30 24 23 15 18 20 19 16 10 15 22 25 21 18 17 22 29 33 32 30 26 25 24 24 26 27 29 32 34 36 38 39 40 41 44 45 45 47
14 18 1 5 3 6 14 19 19 20 26 24 8 5 9 12 16 17 14 15 21 24 24 22 22 21 19 18 15 15 15 17 19 21 24 28 32 34 36 37 37 38 39 40 41 44 46 47 51
13 23 8 6 10 17 18 18 19 8 19 21 9 11 24 21 12 15 17 21 27 29 29 27 23 17 15 15 15 16 16 18 20 21 22 25 28 30 33 35 36 38 41 43 45 47 48 49 50
12 14 8 6 10 10 17 16 6 24 22 13 5 9 22 16 12 17 20 25 30 32 31 28 25 22 20 17 12 11 12 14 17 21 23 26 30 33 34 36 38 39 40 42 43 43 46 48 51
21 21 31 15 12 11 11 26 9 11 13 11 15 12 7 8 4 17 20 26 34 36 36 33 31 28 23 18 13 11 13 18 22 26 29 30 31 32 34 35 36 38 40 41 43 45 47 50 51
Wind_Direction_500mb
342 347 9 148 221 248 135 159 121 155 163 131 141 178 290 3 327 28 156 161 160 156 161 160 157 150 140 136 139 140 150 143 158 155 147 153 138 132 148 143 115 114 115 115 107 100 96 98 102
341 349 84 169 250 238 111 149 187 154 125 139 139 156 194 98 87 150 152 162 160 160 161 164 159 153 145 142 143 144 153 164 164 151 134 138 144 136 139 155 124 111 115 110 113 112 107 103 101
332 354 235 214 253 270 103 174 146 136 143 159 151 183 128 105 128 150 163 164 161 163 166 166 164 162 153 149 147 149 155 167 171 165 143 130 127 145 142 159 145 121 119 105 108 114 109 104 100
330 322 87 249 181 78 36 152 153 146 185 212 189 169 121 162 150 161 167 167 166 166 170 169 168 166 161 160 156 159 159 156 156 160 126 115 127 144 149 147 155 137 127 117 115 111 109 101 96
309 244 189 198 158 180 220 157 165 163 161 177 194 138 134 187 172 159 169 172 172 168 174 173 172 172 172 169 167 166 166 159 159 148 159 175 169 146 151 144 136 131 148 133 123 117 107 98 87
248 237 207 206 173 157 164 169 167 171 163 161 197 160 134 164 164 161 167 173 178 176 174 178 175 179 179 180 179 174 174 176 176 166 170 178 187 218 159 160 152 156 173 170 139 135 128 110 88
274 235 217 161 159 169 166 165 185 176 170 189 177 165 147 170 171 168 169 174 179 181 178 182 181 184 187 186 187 186 185 190 190 181 180 182 192 192 199 194 172 168 193 215 202 170 187 160 113
281 244 177 187 180 174 158 172 195 186 179 178 183 182 161 183 179 177 175 177 183 187 187 188 189 189 192 192 193 195 195 194 200 207 209 198 189 196 211 218 209 209 200 220 235 225 225 236 244
237 224 211 187 174 165 160 183 180 188 164 184 188 171 168 181 180 178 181 185 190 193 196 197 196 198 198 197 199 200 204 204 205 211 218 219 209 221 236 239 227 216 221 218 231 238 241 249 257
235 235 212 220 212 180 175 191 167 178 179 202 193 198 182 184 187 188 191 192 196 199 200 203 204 206 206 206 209 209 209 212 215 220 223 224 225 231 236 248 281 281 251 241 237 243 247 252 259
182 250 331 118 288 180 176 192 181 183 201 209 204 195 195 188 192 199 202 204 203 203 207 207 209 211 214 215 217 219 220 220 221 225 229 234 233 240 244 251 263 267 274 266 255 258 258 257 259
240 231 276 14 352 197 177 175 199 205 193 203 190 193 202 197 200 201 205 207 208 211 212 213 215 216 219 223 225 228 230 230 231 234 239 241 241 244 249 254 258 261 264 261 261 264 264 265 265
246 321 229 268 300 356 179 201 225 227 222 200 201 199 206 208 207 207 207 209 212 216 219 219 220 223 225 228 232 235 238 239 240 240 241 244 248 249 250 256 261 265 265 267 268 267 267 268 268
150 270 297 300 227 244 238 221 259 232 212 219 213 210 210 209 209 207 209 209 213 216 222 225 226 228 231 235 238 240 242 243 242 244 246 247 248 251 255 257 260 264 269 271 270 270 271 270 272
151 218 271 237 245 215 197 244 234 243 217 217 221 219 214 213 213 216 217 221 224 224 228 229 235 234 237 242 244 246 247 247 245 246 248 249 250 251 253 256 259 263 266 267 270 271 272 274 275
193 229 229 119 224 247 212 242 238 241 242 234 229 230 231 228 225 226 226 228 231 232 233 235 238 242 243 245 248 251 252 254 253 250 249 249 252 252 253 254 256 261 264 267 270 274 275 276 279
212 223 216 227 163 282 218 254 245 291 234 242 244 247 247 244 242 238 238 236 238 240 241 242 245 246 248 249 251 253 256 256 256 256 255 252 249 253 254 256 258 261 263 266 269 272 276 278 283
200 213 213 220 120 204 218 252 251 258 294 260 260 258 258 256 250 247 246 245 245 246 246 247 248 249 250 251 250 250 252 253 252 253 255 255 251 249 255 258 260 262 266 268 271 274 277 280 281
164 193 205 209 102 280 252 258 260 263 268 266 265 263 259 256 258 255 251 249 249 250 250 250 250 250 247 246 247 248 249 251 252 253 253 255 255 253 254 259 262 262 265 270 271 273 274 277 282
203 185 222 259 81 268 280 274 275 262 256 249 252 255 256 258 256 258 255 252 249 249 251 251 251 249 246 247 249 250 252 253 254 255 256 255 254 252 252 256 262 264 264 265 268 271 275 278 283
217 226 204 243 237 176 302 273 249 240 255 251 250 250 254 258 264 261 261 260 255 252 250 250 249 246 245 246 246 245 246 249 249 249 252 250 247 246 248 250 253 256 258 262 267 269 270 273 277
218 218 223 212 234 254 330 284 264 268 271 260 261 248 257 257 263 271 272 264 256 251 247 244 242 242 244 241 243 243 249 251 250 249 249 247 244 243 242 242 246 253 260 264 269 270 273 274 272
217 149 187 188 216 282 195 252 246 276 270 255 256 257 216 266 284 293 290 277 258 242 240 243 239 237 241 241 241 243 245 249 247 250 249 248 248 245 245 247 251 257 263 269 271 272 273 274 276
141 111 93 92 174 239 215 234 258 223 230 244 198 175 302 298 284 303 304 287 245 231 230 231 230 232 238 239 235 235 237 240 244 246 245 245 249 250 253 257 259 261 261 264 266 269 271 273 276
187 164 173 214 208 253 119 221 270 275 255 244 258 282 298 294 290 288 296 286 230 224 220 228 232 233 234 228 228 231 233 235 236 241 247 253 256 259 260 258 260 262 264 265 266 269 272 275 276
192 192 200 242 238 281 121 232 217 278 291 275 255 258 280 310 289 285 276 246 206 198 200 203 206 207 206 214 219 222 226 230 233 237 243 250 252 253 256 258 262 266 268 269 270 273 276 277 281
176 214 124 79 83 274 235 247 274 279 276 264 218 260 335 323 276 260 242 211 189 186 185 183 184 182 178 178 185 197 210 223 232 240 248 255 261 265 267 267 267 266 266 267 269 271 276 280 283
204 148 156 215 233 251 246 254 247 189 235 256 310 21 4 353 289 242 212 191 183 182 182 179 177 186 190 193 201 208 220 230 240 247 255 264 268 268 268 267 266 265 266 266 267 271 275 278 281
170 196 209 218 222 252 271 256 218 233 243 267 228 341 329 312 287 230 205 189 188 192 193 194 195 189 181 179 192 209 229 243 253 259 263 267 271 273 273 274 274 274 273 273 274 275 277 279 282
250 224 204 214 202 239 283 259 159 208 175 210 266 292 44 46 232 218 221 215 208 206 207 206 200 195 190 194 209 234 258 266 270 272 275 277 280 282 283 281 280 278 278 279 281 280 280 283 284
Wind_Speed_850mb
26 24 6 5 7 5 5 8 1 11 11 5 16 7 2 5 5 6 20 34 41 39 36 35 27 21 19 18 23 25 30 27 18 16 16 15 16 22 23 21 11 23 25 24 23 25 25 26 26
23 18 2 2 6 6 7 9 13 13 8 16 12 9 6 4 4 6 34 36 42 39 37 37 30 21 18 17 18 22 25 27 22 14 14 15 15 16 22 24 14 19 22 24 25 24 21 21 21
19 9 4 3 3 2 5 11 13 12 21 10 8 2 2 5 6 25 29 44 42 39 37 38 31 23 18 16 16 18 19 23 20 15 9 13 13 14 17 22 20 15 17 20 22 22 19 18 17
12 3 4 8 4 2 4 15 15 22 11 5 4 6 4 8 12 23 37 47 42 40 37 36 31 24 20 17 17 16 14 20 20 14 13 7 10 11 12 18 16 18 14 16 19 19 17 16 15
8 3 4 4 4 1 2 12 24 22 13 10 10 6 5 8 19 29 37 44 41 40 39 35 30 26 21 18 17 16 15 16 18 21 17 8 8 11 10 11 11 10 10 11 14 14 14 12 11
5 3 7 11 7 3 4 16 20 18 12 11 9 9 8 14 28 29 38 40 40 38 40 36 31 26 21 18 17 16 15 17 17 19 24 19 10 6 8 11 11 8 6 5 9 10 9 8 8
7 5 6 9 12 9 9 21 21 20 14 13 5 10 9 20 34 28 37 36 39 38 37 35 30 26 22 19 17 17 16 16 17 18 20 20 15 11 7 11 12 10 9 8 6 8 5 3 3
4 5 9 10 17 10 18 22 12 20 14 10 11 7 9 28 34 33 38 35 39 40 38 37 33 28 25 22 20 19 16 16 17 18 17 12 18 18 15 10 11 11 11 11 10 9 10 7 5
3 9 15 15 18 13 23 20 13 12 11 12 16 6 12 34 37 41 44 41 41 42 41 38 35 30 27 25 23 21 19 17 19 19 19 16 15 14 14 13 12 14 13 14 14 15 16 14 12
7 9 12 3 8 14 30 29 27 16 17 15 15 20 17 34 41 46 50 48 46 47 46 43 40 36 31 29 27 25 23 22 20 20 21 22 21 20 18 16 10 9 13 16 18 19 20 19 20
4 7 4 2 2 5 23 19 21 19 18 25 30 28 26 35 44 45 46 45 45 45 46 45 43 40 37 34 33 32 29 26 24 22 21 21 24 24 22 21 21 17 14 12 17 21 23 25 25
8 6 2 4 3 3 13 14 13 28 7 18 14 25 27 35 42 41 42 43 44 44 43 44 44 43 41 39 38 36 35 32 29 26 24 23 23 24 24 24 24 24 23 21 22 24 27 30 31
9 2 3 3 2 1 3 9 10 23 16 12 28 25 28 31 36 37 34 35 38 41 40 40 42 42 42 43 42 41 40 36 33 32 31 29 28 27 27 26 26 26 27 26 27 28 29 31 34
6 5 6 4 6 3 5 5 4 14 19 20 20 26 28 33 35 35 39 39 38 36 39 39 41 40 41 42 42 43 43 41 40 39 37 35 34 33 32 31 30 29 28 28 29 30 32 34 37
5 4 3 10 5 6 7 18 21 10 18 21 21 19 27 32 37 40 35 35 34 34 35 36 37 39 41 42 43 44 42 42 43 41 40 39 39 37 35 35 34 32 32 32 32 32 34 37 40
5 3 11 5 6 2 11 28 12 18 21 23 29 26 23 29 37 40 40 39 38 38 39 36 39 40 43 45 44 44 44 42 40 41 40 41 39 37 37 37 35 34 34 35 37 36 39 40 42
5 13 16 6 3 3 15 11 6 5 12 36 36 31 30 35 41 45 45 45 45 43 42 43 44 45 46 46 47 47 48 47 43 42 43 39 40 40 39 38 36 36 38 38 38 40 42 44 47
16 13 10 13 6 7 14 30 17 9 10 17 26 32 36 44 61 51 50 49 50 50 51 52 53 53 52 51 52 53 54 53 49 49 48 45 42 40 42 42 40 38 40 41 41 41 42 47 48
9 10 9 5 6 5 21 29 27 28 30 38 45 44 42 45 51 52 58 60 61 63 65 65 64 66 60 61 62 58 57 54 52 51 51 51 46 42 43 45 44 41 41 40 42 42 45 46 49
12 12 12 5 1 3 16 27 32 36 37 44 49 53 58 58 56 56 62 59 57 59 61 59 58 54 60 63 64 63 59 58 53 53 50 48 45 43 43 43 44 42 41 42 43 44 45 48 46
17 22 14 6 1 4 15 27 17 8 19 28 39 54 55 54 51 47 52 60 64 68 68 66 61 54 51 50 52 60 66 67 64 59 54 48 44 41 41 42 42 41 40 40 42 43 44 44 47
14 19 18 11 4 9 6 13 8 13 21 25 42 32 41 37 45 50 52 58 60 63 66 64 65 64 59 55 56 56 55 64 69 66 61 49 40 40 40 40 41 42 45 43 44 46 46 46 46
2 8 11 8 10 4 10 11 7 7 16 30 13 6 5 7 21 29 34 38 41 51 46 55 69 70 67 71 66 59 54 50 51 57 51 49 47 44 44 45 44 47 47 49 49 48 45 44 45
17 13 10 5 4 9 18 16 21 14 16 3 3 14 18 19 22 25 27 24 26 30 37 36 41 53 62 64 65 59 53 45 43 45 47 48 47 46 46 45 45 44 44 44 43 42 41 42 44
8 15 4 6 8 10 3 13 23 26 26 17 15 25 26 30 26 24 20 14 21 29 31 28 26 28 35 42 44 45 43 42 39 40 39 39 38 36 33 33 34 37 38 39 41 43 45 45 46
29 15 7 11 9 6 4 13 7 16 27 30 24 23 15 18 20 19 16 10 15 22 25 21 18 17 22 29 33 32 30 26 25 24 24 26 27 29 32 34 36 38 39 40 41 44 45 45 47
14 18 1 5 3 6 14 19 19 20 26 24 8 5 9 12 16 17 14 15 21 24 24 22 22 21 19 18 15 15 15 17 19 21 24 28 32 34 36 37 37 38 39 40 41 44 46 47 51
13 23 8 6 10 17 18 18 19 8 19 21 9 11 24 21 12 15 17 21 27 29 29 27 23 17 15 15 15 16 16 18 20 21 22 25 28 30 33 35 36 38 41 43 45 47 48 49 50
12 14 8 6 10 10 17 16 6 24 22 13 5 9 22 16 12 17 20 25 30 32 31 28 25 22 20 17 12 11 12 14 17 21 23 26 30 33 34 36 38 39 40 42 43 43 46 48 51
21 21 31 15 12 11 11 26 9 11 13 11 15 12 7 8 4 17 20 26 34 36 36 33 31 28 23 18 13 11 13 18 22 26 29 30 31 32 34 35 36 38 40 41 43 45 47 50 51
Wind_Direction_850mb
342 347 9 148 221 248 135 159 121 155 163 131 141 178 290 3 327 28 156 161 160 156 161 160 157 150 140 136 139 140 150 143 158 155 147 153 138 132 148 143 115 114 115 115 107 100 96 98 102
341 349 84 169 250 238 111 149 187 154 125 139 139 156 194 98 87 150 152 162 160 160 161 164 159 153 145 142 143 144 153 164 164 151 134 138 144 136 139 155 124 111 115 110 113 112 107 103 101
332 354 235 214 253 270 103 174 146 136 143 159 151 183 128 105 128 150 163 164 161 163 166 166 164 162 153 149 147 149 155 167 171 165 143 130 127 145 142 159 145 121 119 105 108 114 109 104 100
330 322 87 249 181 78 36 152 153 146 185 212 189 169 121 162 150 161 167 167 166 166 170 169 168 166 161 160 156 159 159 156 156 160 126 115 127 144 149 147 155 137 127 117 115 111 109 101 96
309 244 189 198 158 180 220 157 165 163 161 177 194 138 134 187 172 159 169 172 172 168 174 173 172 172 172 169 167 166 166 159 159 148 159 175 169 146 151 144 136 131 148 133 123 117 107 98 87
248 237 207 206 173 157 164 169 167 171 163 161 197 160 134 164 164 161 167 173 178 176 174 178 175 179 179 180 179 174 174 176 176 166 170 178 187 218 159 160 152 156 173 170 139 135 128 110 88
274 235 217 161 159 169 166 165 185 176 170 189 177 165 147 170 171 168 169 174 179 181 178 182 181 184 187 186 187 186 185 190 190 181 180 182 192 192 199 194 172 168 193 215 202 170 187 160 113
281 244 177 187 180 174 158 172 195 186 179 178 183 182 161 183 179 177 175 177 183 187 187 188 189 189 192 192 193 195 195 194 200 207 209 198 189 196 211 218 209 209 200 220 235 225 225 236 244
237 224 211 187 174 165 160 183 180 188 164 184 188 171 168 181 180 178 181 185 190 193 196 197 196 198 198 197 199 200 204 204 205 211 218 219 209 221 236 239 227 216 221 218 231 238 241 249 257
235 235 212 220 212 180 175 191 167 178 179 202 193 198 182 184 187 188 191 192 196 199 200 203 204 206 206 206 209 209 209 212 215 220 223 224 225 231 236 248 281 281 251 241 237 243 247 252 259
182 250 331 118 288 180 176 192 181 183 201 209 204 195 195 188 192 199 202 204 203 203 207 207 209 211 214 215 217 219 220 220 221 225 229 234 233 240 244 251 263 267 274 266 255 258 258 257 259
240 231 276 14 352 197 177 175 199 205 193 203 190 193 202 197 200 201 205 207 208 211 212 213 215 216 219 223 225 228 230 230 231 234 239 241 241 244 249 254 258 261 264 261 261 264 264 265 265
246 321 229 268 300 356 179 201 225 227 222 200 201 199 206 208 207 207 207 209 212 216 219 219 220 223 225 228 232 235 238 239 240 240 241 244 248 249 250 256 261 265 265 267 268 267 267 268 268
150 270 297 300 227 244 238 221 259 232 212 219 213 210 210 209 209 207 209 209 213 216 222 225 226 228 231 235 238 240 242 243 242 244 246 247 248 251 255 257 260 264 269 271 270 270 271 270 272
151 218 271 237 245 215 197 244 234 243 217 217 221 219 214 213 213 216 217 221 224 224 228 229 235 234 237 242 244 246 247 247 245 246 248 249 250 251 253 256 259 263 266 267 270 271 272 274 275
193 229 229 119 224 247 212 242 238 241 242 234 229 230 231 228 225 226 226 228 231 232 233 235 238 242 243 245 248 251 252 254 253 250 249 249 252 252 253 254 256 261 264 267 270 274 275 276 279
212 223 216 227 163 282 218 254 245 291 234 242 244 247 247 244 242 238 238 236 238 240 241 242 245 246 248 249 251 253 256 256 256 256 255 252 249 253 254 256 258 261 263 266 269 272 276 278 283
200 213 213 220 120 204 218 252 251 258 294 260 260 258 258 256 250 247 246 245 245 246 246 247 248 249 250 251 250 250 252 253 252 253 255 255 251 249 255 258 260 262 266 268 271 274 277 280 281
164 193 205 209 102 280 252 258 260 263 268 266 265 263 259 256 258 255 251 249 249 250 250 250 250 250 247 246 247 248 249 251 252 253 253 255 255 253 254 259 262 262 265 270 271 273 274 277 282
203 185 222 259 81 268 280 274 275 262 256 249 252 255 256 258 256 258 255 252 249 249 251 251 251 249 246 247 249 250 252 253 254 255 256 255 254 252 252 256 262 264 264 265 268 271 275 278 283
217 226 204 243 237 176 302 273 249 240 255 251 250 250 254 258 264 261 261 260 255 252 250 250 249 246 245 246 246 245 246 249 249 249 252 250 247 246 248 250 253 256 258 262 267 269 270 273 277
218 218 223 212 234 254 330 284 264 268 271 260 261 248 257 257 263 271 272 264 256 251 247 244 242 242 244 241 243 243 249 251 250 249 249 247 244 243 242 242 246 253 260 264 269 270 273 274 272
217 149 187 188 216 282 195 252 246 276 270 255 256 257 216 266 284 293 290 277 258 242 240 243 239 237 241 241 241 243 245 249 247 250 249 248 248 245 245 247 251 257 263 269 271 272 273 274 276
141 111 93 92 174 239 215 234 258 223 230 244 198 175 302 298 284 303 304 287 245 231 230 231 230 232 238 239 235 235 237 240 244 246 245 245 249 250 253 257 259 261 261 264 266 269 271 273 276
187 164 173 214 208 253 119 221 270 275 255 244 258 282 298 294 290 288 296 286 230 224 220 228 232 233 234 228 228 231 233 235 236 241 247 253 256 259 260 258 260 262 264 265 266 269 272 275 276
192 192 200 242 238 281 121 232 217 278 291 275 255 258 280 310 289 285 276 246 206 198 200 203 206 207 206 214 219 222 226 230 233 237 243 250 252 253 256 258 262 266 268 269 270 273 276 277 281
176 214 124 79 83 274 235 247 274 279 276 264 218 260 335 323 276 260 242 211 189 186 185 183 184 182 178 178 185 197 210 223 232 240 248 255 261 265 267 267 267 266 266 267 269 271 276 280 283
204 148 156 215 233 251 246 254 247 189 235 256 310 21 4 353 289 242 212 191 183 182 182 179 177 186 190 193 201 208 220 230 240 247 255 264 268 268 268 267 266 265 266 266 267 271 275 278 281
170 196 209 218 222 252 271 256 218 233 243 267 228 341 329 312 287 230 205 189 188 192 193 194 195 189 181 179 192 209 229 243 253 259 263 267 271 273 273 274 274 274 273 273 274 275 277 279 282
250 224 204 214 202 239 283 259 159 208 175 210 266 292 44 46 232 218 221 215 208 206 207 206 200 195 190 194 209 234 258 266 270 272 275 277 280 282 283 281 280 278 278 279 281 280 280 283 284